Flag for Brazil Weather past 2 weeks in Santarém, Para, Brazil

Now
88 °F

Scattered clouds.


Feels Like: 96 °F
Forecast: 76 / 85 °F
Wind: 6 mph from East

Location: Santarem-Aeroporto

Current Time: Mar 31, 2015 at 3:16:04 PM

Latest Report: Mar 31, 2015 at 3:00 PM


Visibility: N/A

Pressure: 29.83 "Hg

Humidity: 62%

Dew point: 73 °F

Location of SantarémLocation

Historic Weather in Santarém — Graph

°F

Santarém temperature yesterday

Maximum temperature yesterday: 86 °F (at 2:00 PM)
Minimum temperature yesterday: 73 °F (at 3:00 AM)
Average temperature yesterday: 79 °F

Past Weeks' High & Low Weather Summary

 TemperatureHumidityPressure
High88 °F (Mar 27, 2:00 PM)100% (Mar 16, 9:00 PM)30.04 "Hg (Mar 16, 9:00 PM)
Low45 °F (Mar 23, 10:00 AM)66% (Mar 19, 1:00 PM)26.58 "Hg (Mar 28, 7:00 PM)
Average78 °F89%29.87 "Hg
* Reported Mar 16 2:00 PM — Mar 31 2:00 PM, Santarém, Weather by CustomWeather, © 2015

Note: Actual official high and low records may vary slightly from our data, if they occured in-between our weather recording intervals... More about our weather records

Advertising

Santarém weather history for previous 24 hours

 ConditionsComfort  
Time TempWeatherWind HumidityBarometerVisibility
2:00 PM
Tue, Mar 31
86 °FScattered clouds.7 mph75%29.89 "HgN/A
1:00 PM84 °FScattered clouds.7 mph70%29.92 "HgN/A
12:00 PM82 °FPartly sunny.7 mph79%29.95 "HgN/A
11:00 AM82 °FPartly sunny.6 mph79%29.95 "HgN/A
10:00 AM81 °FBroken clouds.8 mph79%29.98 "HgN/A
9:00 AM79 °FBroken clouds.3 mph84%29.95 "HgN/A
8:00 AM77 °FBroken clouds.2 mph89%29.92 "HgN/A
7:00 AM75 °FPartly cloudy.3 mph94%29.92 "HgN/A
6:00 AM75 °FPassing clouds.2 mph94%29.89 "HgN/A
5:00 AM75 °FOvercast.2 mph94%29.89 "HgN/A
4:00 AM75 °FMostly cloudy.2 mph94%29.89 "HgN/A
3:00 AM75 °FLight rain. Mostly cloudy.1 mph94%29.89 "HgN/A
2:00 AM75 °FLight rain. Partly cloudy.6 mph94%29.89 "HgN/A
1:00 AM75 °FLight rain. Passing clouds.5 mph94%29.92 "HgN/A
12:00 AM77 °FLight rain. Passing clouds.10 mph89%29.92 "HgN/A
11:00 PM
Mon, Mar 30
75 °FPassing clouds.7 mph94%29.92 "HgN/A
10:00 PM77 °FThundershowers. Passing clouds.5 mph89%N/AN/A
9:00 PM75 °FThunderstorms. Passing clouds.5 mph94%29.89 "HgN/A
8:00 PM79 °FThunderstorms. Passing clouds.6 mph89%29.86 "HgN/A
7:00 PM79 °FThunderstorms. Scattered clouds.2 mph94%29.83 "HgN/A
6:00 PM82 °FThunderstorms. Scattered clouds.2 mph79%29.80 "HgN/A
5:00 PM84 °FScattered clouds.No wind79%29.77 "HgN/A
4:00 PM86 °FPassing clouds.2 mph70%29.80 "HgN/A
3:00 PM86 °FScattered clouds.5 mph70%29.80 "HgN/A
Weather by CustomWeather, © 2015

See weather overviewHow to use our weather pages